TimeCST,TemperatureF,Dew PointF,Humidity,Sea Level PressureIn,VisibilityMPH,Wind Direction,Wind SpeedMPH,Gust SpeedMPH,PrecipitationIn,Events,Conditions,WindDirDegrees,DateUTC
12:15 AM,44.6,42.8,93,29.41,2.5,South,11.5,20.7,N/A,,Overcast,190,2013-01-12 06:15:00
12:35 AM,44.6,42.8,93,29.40,4.0,South,13.8,18.4,N/A,,Overcast,190,2013-01-12 06:35:00
12:55 AM,44.6,44.6,100,29.40,5.0,South,13.8,20.7,N/A,,Overcast,190,2013-01-12 06:55:00
1:15 AM,44.6,44.6,100,29.40,7.0,SSW,11.5,16.1,N/A,,Overcast,200,2013-01-12 07:15:00
1:35 AM,46.4,44.6,93,29.39,7.0,SSW,11.5,17.3,N/A,,Overcast,200,2013-01-12 07:35:00
1:55 AM,46.4,44.6,93,29.39,7.0,SSW,12.7,17.3,N/A,,Overcast,200,2013-01-12 07:55:00
2:15 AM,46.4,44.6,93,29.39,7.0,SSW,11.5,21.9,N/A,,Overcast,200,2013-01-12 08:15:00
2:35 AM,46.4,44.6,93,29.39,7.0,SSW,15.0,18.4,N/A,,Overcast,200,2013-01-12 08:35:00
2:55 AM,46.4,44.6,93,29.38,7.0,SSW,12.7,19.6,N/A,,Overcast,210,2013-01-12 08:55:00
3:15 AM,46.4,44.6,93,29.39,3.0,SSW,15.0,21.9,N/A,,Drizzle,210,2013-01-12 09:15:00
3:35 AM,46.4,44.6,93,29.38,5.0,SW,12.7,20.7,N/A,,Overcast,220,2013-01-12 09:35:00
3:55 AM,44.6,44.6,100,29.39,3.0,SW,13.8,21.9,N/A,Rain,Light Rain,220,2013-01-12 09:55:00
4:15 AM,44.6,42.8,93,29.40,3.0,WSW,17.3,26.5,N/A,Rain,Light Rain,240,2013-01-12 10:15:00
4:35 AM,42.8,41.0,93,29.40,10.0,SW,18.4,26.5,N/A,,Overcast,230,2013-01-12 10:35:00
4:55 AM,42.8,39.2,87,29.41,10.0,SW,20.7,29.9,N/A,,Overcast,220,2013-01-12 10:55:00
5:15 AM,41.0,39.2,93,29.42,10.0,SW,19.6,32.2,N/A,,Overcast,220,2013-01-12 11:15:00
5:35 AM,41.0,37.4,87,29.43,10.0,SW,21.9,32.2,N/A,,Overcast,220,2013-01-12 11:35:00
5:55 AM,39.2,37.4,93,29.45,10.0,SW,16.1,23.0,N/A,,Overcast,230,2013-01-12 11:55:00
6:15 AM,39.2,35.6,87,29.47,10.0,SW,17.3,26.5,N/A,,Overcast,230,2013-01-12 12:15:00
6:35 AM,37.4,33.8,87,29.49,10.0,SW,16.1,31.1,N/A,,Overcast,230,2013-01-12 12:35:00
6:55 AM,35.6,30.2,81,29.51,10.0,SW,23.0,32.2,N/A,,Overcast,230,2013-01-12 12:55:00
7:15 AM,33.8,28.4,81,29.53,10.0,SW,19.6,38.0,N/A,,Overcast,230,2013-01-12 13:15:00
7:35 AM,32.0,26.6,80,29.55,10.0,WSW,21.9,28.8,N/A,,Overcast,240,2013-01-12 13:35:00
7:55 AM,32.0,26.6,80,29.57,10.0,WSW,19.6,31.1,N/A,,Overcast,240,2013-01-12 13:55:00
8:15 AM,30.2,26.6,86,29.59,10.0,WSW,20.7,28.8,N/A,,Overcast,240,2013-01-12 14:15:00
8:35 AM,28.4,23.0,80,29.61,10.0,WSW,25.3,33.4,N/A,,Overcast,240,2013-01-12 14:35:00
8:55 AM,28.4,21.2,74,29.62,10.0,SW,16.1,23.0,N/A,,Unknown,230,2013-01-12 14:55:00
9:15 AM,26.6,21.2,80,29.64,10.0,WSW,23.0,31.1,N/A,,Overcast,240,2013-01-12 15:15:00
9:35 AM,26.6,19.4,74,29.65,10.0,SW,23.0,29.9,N/A,,Overcast,230,2013-01-12 15:35:00
9:55 AM,24.8,17.6,74,29.67,10.0,SW,21.9,31.1,N/A,,Overcast,230,2013-01-12 15:55:00
10:15 AM,24.8,17.6,74,29.68,10.0,SW,19.6,28.8,N/A,,Overcast,230,2013-01-12 16:15:00
10:35 AM,23.0,17.6,80,29.69,10.0,SW,24.2,31.1,N/A,,Unknown,230,2013-01-12 16:35:00
10:55 AM,24.8,17.6,74,29.70,10.0,WSW,17.3,26.5,N/A,,Unknown,240,2013-01-12 16:55:00
11:15 AM,24.8,17.6,74,29.72,10.0,SW,20.7,29.9,N/A,,Overcast,230,2013-01-12 17:15:00
11:55 AM,23.0,15.8,74,29.72,10.0,WSW,13.8,24.2,N/A,,Overcast,250,2013-01-12 17:55:00
12:15 PM,23.0,15.8,74,29.73,10.0,SW,12.7,24.2,N/A,,Unknown,230,2013-01-12 18:15:00
12:35 PM,23.0,15.8,74,29.74,10.0,WSW,12.7,17.3,N/A,,Unknown,240,2013-01-12 18:35:00
12:55 PM,23.0,15.8,74,29.75,10.0,WSW,13.8,23.0,N/A,,Unknown,240,2013-01-12 18:55:00
1:35 PM,21.2,14.0,74,29.78,10.0,SW,12.7,25.3,N/A,,Overcast,230,2013-01-12 19:35:00
1:55 PM,21.2,14.0,74,29.79,10.0,SW,13.8,24.2,N/A,Snow,Light Snow,230,2013-01-12 19:55:00
2:15 PM,21.2,15.8,80,29.81,10.0,SW,19.6,25.3,N/A,Snow,Light Snow,230,2013-01-12 20:15:00
2:35 PM,19.4,12.2,74,29.81,10.0,WSW,13.8,26.5,N/A,Snow,Light Snow,250,2013-01-12 20:35:00
2:55 PM,19.4,12.2,74,29.82,7.0,WSW,16.1,20.7,N/A,Snow,Light Snow,240,2013-01-12 20:55:00
3:15 PM,19.4,12.2,74,29.84,10.0,WSW,13.8,21.9,N/A,,Overcast,250,2013-01-12 21:15:00
3:35 PM,19.4,12.2,74,29.84,10.0,WSW,15.0,-,N/A,Snow,Light Snow,240,2013-01-12 21:35:00
3:55 PM,19.4,12.2,74,29.86,10.0,SW,13.8,24.2,N/A,Snow,Light Snow,230,2013-01-12 21:55:00
4:15 PM,17.6,10.4,73,29.85,10.0,WSW,15.0,21.9,N/A,Snow,Light Snow,250,2013-01-12 22:15:00
4:35 PM,17.6,12.2,79,29.84,5.0,SW,10.4,18.4,N/A,Snow,Light Snow,230,2013-01-12 22:35:00
4:55 PM,17.6,10.4,73,29.85,7.0,West,10.4,18.4,N/A,Snow,Light Snow,260,2013-01-12 22:55:00
5:15 PM,17.6,10.4,73,29.88,10.0,WSW,10.4,-,N/A,,Overcast,250,2013-01-12 23:15:00
5:35 PM,17.6,10.4,73,29.89,10.0,WSW,11.5,-,N/A,Snow,Light Snow,240,2013-01-12 23:35:00
5:55 PM,17.6,10.4,73,29.90,10.0,SW,8.1,-,N/A,,Overcast,230,2013-01-12 23:55:00
6:15 PM,17.6,10.4,73,29.91,10.0,WSW,10.4,-,N/A,,Unknown,240,2013-01-13 00:15:00
6:35 PM,15.8,8.6,73,29.91,10.0,WSW,11.5,16.1,N/A,Snow,Light Snow,240,2013-01-13 00:35:00
6:55 PM,15.8,8.6,73,29.91,10.0,WSW,8.1,-,N/A,,Overcast,240,2013-01-13 00:55:00
7:15 PM,15.8,8.6,73,29.93,10.0,WSW,8.1,-,N/A,,Overcast,250,2013-01-13 01:15:00
7:35 PM,15.8,8.6,73,29.91,10.0,West,4.6,-,N/A,,Overcast,270,2013-01-13 01:35:00
7:55 PM,15.8,8.6,73,29.92,7.0,WSW,6.9,-,N/A,,Overcast,250,2013-01-13 01:55:00
8:15 PM,15.8,8.6,73,29.91,7.0,West,5.8,-,N/A,Snow,Light Snow,280,2013-01-13 02:15:00
8:35 PM,15.8,8.6,73,29.92,10.0,WSW,8.1,-,N/A,,Unknown,250,2013-01-13 02:35:00
8:55 PM,15.8,8.6,73,29.93,10.0,WSW,5.8,-,N/A,Snow,Light Snow,250,2013-01-13 02:55:00
9:15 PM,15.8,6.8,68,29.94,10.0,West,3.5,-,N/A,,Overcast,280,2013-01-13 03:15:00
9:35 PM,15.8,8.6,73,29.94,10.0,WSW,5.8,-,N/A,Snow,Light Snow,240,2013-01-13 03:35:00
9:55 PM,15.8,8.6,73,29.95,10.0,WSW,8.1,-,N/A,,Overcast,250,2013-01-13 03:55:00
10:15 PM,15.8,8.6,73,29.94,10.0,WSW,6.9,-,N/A,,Overcast,250,2013-01-13 04:15:00
10:35 PM,15.8,8.6,73,29.94,10.0,SW,8.1,-,N/A,,Overcast,230,2013-01-13 04:35:00
10:55 PM,15.8,8.6,73,29.94,10.0,WSW,4.6,-,N/A,,Overcast,250,2013-01-13 04:55:00
11:15 PM,14.0,8.6,79,29.94,10.0,West,4.6,-,N/A,,Overcast,280,2013-01-13 05:15:00
11:35 PM,14.0,6.8,73,29.95,10.0,WSW,9.2,-,N/A,,Unknown,240,2013-01-13 05:35:00
11:55 PM,14.0,6.8,73,29.93,10.0,West,4.6,-,N/A,,Overcast,260,2013-01-13 05:55:00